www.pogodaiklimat.ru

Погода и климат >> Архив погоды >> Нигер >> Tillabery


ПОГОДА в Tillabery

  • Прогноз погоды в Tillabery
  • Монитор погоды в Tillabery
  • Климат города

АРХИВ ПОГОДЫ в Tillabery

Время (UTC), дата Ветер
(напр.,м/с)
 
Видим.   Явления Облачность Т
(С)
Тd
(С)
f
(%)
Тe
(С)
Тes
(С)
Комфортность P
(гПа)
Po
(гПа)
Тmin
(С)
Tmax
(С)
R
(мм)
R24
(мм)
S
(см)
18 11.10 штиль 0 10 км 9/0
[Cs]
+34.0 +23.5 54 +45 +45 опасность
перегрева
1008.5 985.2 +37.8
21 11.10 штиль 0 10 км 9/0
[Cs]
+30.6 +21.7 59 +39 +39 очень
душно
1009.5 985.7
00 12.10 штиль 0 10 км 9/0
[Cs]
+29.0 +21.1 62 +36 +36 очень
душно
1007.2 986.0
03 12.10 штиль 0 10 км 9/0
[Cs]
+27.6 +22.4 73 +36 +36 очень
душно
1008.9 985.7
06 12.10 штиль 0 10 км 9/0
[Ac trans Cs]
+26.0 +22.8 83 +35 +35 очень
душно
1009.7 986.4 +26.0
09 12.10 штиль 0 10 км 6/0
[Ac trans Ci sp]
+31.7 +24.0 64 +44 +54 опасность
перегрева
1011.2 987.9
12 12.10 штиль 0 10 км 3/0
[Ci fib]
+38.0 +20.2 36 +44 +68 опасность
перегрева
1009.7 986.7
15 12.10 Ю 4 10 км 4/1 1200 м
[Cu med, cong Ci fib]
+39.3 +18.9 31 +44 +48 опасность
перегрева
1007.8 984.8
18 12.10 штиль 0 10 км 4/1 1200 м
[Cu med, cong Ci fib]
+35.5 +19.5 39 +41 +41 опасность
перегрева
1008.0 984.8 +39.6
21 12.10 штиль 0 10 км 4/0
[Ci fib]
+32.0 +21.0 52 +39 +39 очень
душно
1008.9 985.7
00 13.10 штиль 0 10 км 6/0
[Ci sp]
+29.8 +21.0 59 +37 +37 очень
душно
1008.7 985.6
03 13.10 штиль 0 10 км 6/0
[Ci sp]
+28.4 +21.2 65 +36 +36 очень
душно
1008.1 985.1
06 13.10 Ю 2 10 км 9/1 1200 м
[Cu med, cong Cs]
+27.4 +21.7 71 +35 +35 очень
душно
1009.5 986.3 +27.4
09 13.10 З 6 10 км 9/0
[Ac und Ci sp]
+30.4 +21.8 60 +39 +41 очень
душно
1010.7 987.5
12 13.10 СЗ 6 10 км 9/0
[Cs]
+34.5 +21.6 47 1009.9 986.8
15 13.10 З 6 10 км 9/0
[Cs]
+36.5 +21.4 42 +44 +47 опасность
перегрева
1008.1 985.0
18 13.10 штиль 0 10 км 9/0
[Cs]
+34.0 +21.7 49 +42 +42 опасность
перегрева
1007.8 984.6 +37.0
21 13.10 штиль 0 10 км 9/0
[Cs]
+31.2 +21.9 58 +40 +40 очень
душно
1008.9 985.7
00 14.10 штиль 0 10 км 9/0
[Cs]
+29.3 +22.5 67 +39 +39 очень
душно
1009.1 985.9
03 14.10 штиль 0 10 км 6/0
[Ci sp]
+28.5 +22.2 69 +37 +37 очень
душно
1008.0 984.9
06 14.10 штиль 0 10 км 6/0
[Ci sp]
+27.2 +22.6 76 +36 +36 очень
душно
1008.2 985.0 +27.2
09 14.10 штиль 0 10 км 6/0
[Ac trans Ci sp]
+32.0 +22.2 56 +41 +52 опасность
перегрева
1009.7 986.5
12 14.10 СЗ 4 10 км 6/0
[Ci sp]
+37.5 +22.6 42 +46 +57 опасность
перегрева
1008.5 985.5
15 14.10 Ю 2 10 км 9/5 1200 м
[Cu hum Ci sp]
+39.0 +21.9 38 +47 +51 опасность
перегрева
1006.8 983.8
18 14.10 СВ 8 10 км 9/3 1200 м
[Cu med, cong Ac cuf Ci sp]
+33.5 +19.3 43 +39 +39 очень
душно
1007.2 984.0 +39.6
21 14.10 ЮВ 8 10 км зарница 9/1 1500 м
[Cb cap Ac As Ci sp]
+31.8 +19.9 49 +38 +38 очень
душно
1009.2 986.0
00 15.10 штиль 0 10 км 9/0
[Ac As Cs]
+29.5 +21.4 62 +37 +37 очень
душно
1009.6 986.8
03 15.10 З 4 10 км 9/0
[Cs]
+28.4 +22.0 68 +37 +37 очень
душно
1009.1 986.1
06 15.10 ЮВ 2 10 км 9/0
[Ac trans Ci sp]
+26.8 +21.5 73 +34 +34 очень
душно
1010.4 987.3 +26.8
09 15.10 Ю 2 10 км 9/0
[Ac trans Cs]
+29.0 +20.0 58 +35 +42 очень
душно
1013.7 990.3
12 15.10 СЗ 6 10 км 9/1 1200 м
[Cu med, cong Ac As Ci sp]
+33.2 +19.5 45 +39 +43 очень
душно
1012.1 988.8
15 15.10 С 4 10 км 10/0
[]
+34.4 +19.4 41 +40 +42 очень
душно
1010.4 987.1
18 15.10 штиль 0 10 км 6/0
[Ac und Ci sp]
+32.7 +21.5 52 +41 +41 опасность
перегрева
1010.2 986.9 +35.0
21 15.10 штиль 0 10 км 6/0
[Ac trans Ci sp]
+29.5 +22.3 65 +38 +38 очень
душно
1011.7 988.2
00 16.10 штиль 0 10 км 6/0
[Ci sp]
+28.0 +23.0 74 +37 +37 очень
душно
1011.0 987.7
03 16.10 штиль 0 10 км 6/0
[Ci sp]
+27.0 +20.6 68 +34 +34 очень
душно
1010.5 987.2
06 16.10 штиль 0 10 км 9/0
[Cs]
+26.0 +21.6 77 +33 +33 очень
душно
1011.0 987.6 +24.0
09 16.10 ЮЗ 2 10 км 9/0
[Ac lent Cs]
+30.5 +22.6 63 +40 +47 очень
душно
1011.8 988.4
12 16.10 З 4 10 км 9/0
[Cs]
+38.0 +16.2 28 +40 +50 очень
душно
1010.3 987.2
15 16.10 З 4 10 км 9/4 1200 м
[Cu hum Ci sp]
+40.0 +16.4 25 +42 +45 опасность
перегрева
1008.1 985.1
18 16.10 штиль 0 10 км 9/0
[Ac trans Cs]
+36.5 +19.5 37 +42 +42 опасность
перегрева
1008.2 985.0 +40.5
21 16.10 штиль 0 10 км 9/0
[Cs]
+32.4 +20.8 50 +39 +39 очень
душно
1009.5 986.3
00 17.10 штиль 0 10 км 6/0
[Ci sp]
+30.0 +21.2 59 +38 +38 очень
душно
1009.7 986.7
03 17.10 штиль 0 10 км 6/0
[Ci sp]
+28.8 +21.1 63 +36 +36 очень
душно
1008.5 985.6
06 17.10 штиль 0 10 км 6/0
[Ac trans Ci sp]
+28.2 +23.7 77 +39 +39 очень
душно
1009.5 986.4 +28.2
09 17.10 З 8 10 км 9/0
[Ci sp]
+34.0 +22.6 51 +43 +45 опасность
перегрева
1010.5 987.4
12 17.10 СЗ 4 10 км 6/0
[Ci sp]
+38.4 +20.8 36 +45 +55 опасность
перегрева
1008.8 985.8
15 17.10 ЮЗ 2 10 км 9/4 1200 м
[Cu hum Ci sp]
+40.4 +19.5 30 +45 +49 опасность
перегрева
1006.7 983.8
18 17.10 штиль 0 10 км 9/3 1200 м
[Cu med, cong Ac cuf Ci sp]
+37.0 +20.8 39 +44 +44 опасность
перегрева
1007.1 984.0 +41.0
21 17.10 штиль 0 10 км 9/0
[Cs]
+33.0 +20.5 48 +40 +40 очень
душно
1008.8 985.8
00 18.10 штиль 0 10 км 6/0
[Ci sp]
+30.5 +20.0 53 +37 +37 очень
душно
1008.3 985.4
03 18.10 штиль 0 10 км 6/0
[Ci sp]
+29.7 +21.0 60 +37 +37 очень
душно
1007.7 984.8
06 18.10 штиль 0 10 км 9/0
[Cs]
+27.0 +21.6 72 +34 +34 очень
душно
1008.5 985.3 +27.0
09 18.10 З 4 10 км 3/0
[Ci fib]
+33.8 +22.7 52 +43 +49 опасность
перегрева
1009.1 986.0
12 18.10 С 8 10 км 3/0
[Ci fib]
+38.5 +21.3 37 +45 +49 опасность
перегрева
1007.1 984.2

 

Местоположение метеостанции Tillabery (Нигер): широта 14.20 долгота 1.45 высота над уровнем моря 210 м.

В архиве по умолчанию представлена погода в Tillabery за последнюю неделю. Архивные данные за месяц целиком и за предыдущие месяцы, начиная с января 2011 года, Вы можете получить, выбрав интересующий диапазон дат из раскрывающегося списка и нажав кнопку "Ввод!".


*Определитесь, кто Вы:
робот инопланетянин человек

Внимание! Время в таблицах - всемирное. Для получения местного времени необходимо прибавить поправку, которая в Tillabery равна 1 ч.

Смотрите также архив погоды в соседних городах и на ближайших метеорологических станциях:

Погода в Niamey (Нигер) (112 км)
Погода в Dori (Буркина-Фасо) (161 км)
Погода в Dosso (Нигер) (231 км)
Погода в Fada N`Gourma (Буркина-Фасо) (268 км)
Погода в Gaya (Нигер) (337 км)
Погода в Kandi (Бенин) (377 км)
Погода в Ouagadougou (Буркина-Фасо) (382 км)
Погода в Dapaon (Того) (389 км)
Погода в Birni-Nkonni (Нигер) (413 км)
Погода в Tahoua (Нигер) (416 км)

Пояснения к столбцам:

Ветер - указаны скорость ветра в м/с - средняя за 10 мин, порывы в срок и между сроками (в фигурных скобках) и направление, откуда дует ветер: С - северный, СВ - северо-восточный, В - восточный, ЮВ - юго-восточный, Ю - южный, ЮЗ - юго-западный, З - западный, СЗ - северо-западный.
Видимость - горизонтальная дальность видимости в метрах или километрах. При видимости от 1 до 10 км при отсутствии осадков обычно наблюдается дымка, при ухудшении видимости до 1 км и менее - туман. В сухую погоду видимость может ухудшаться дымом, пылью или мглою.
Явления - указаны атмосферные явления, наблюдавшиеся в срок или в последний час перед сроком; фигурными скобками обозначены явления, наблюдавшиеся между сроками (за 1-3 часа до срока); квадратными скобками обозначены град или гололедные отложения с указанием их диаметра в мм.
Облачность - указаны через наклонную черту общая и нижняя облачность в баллах и высота нижней границы облаков в метрах; квадратными скобками обозначены формы облаков: Ci - перистые, Cs - перисто-слоистые, Cc - перисто-кучевые, Ac - высококучевые, As - высокослоистые, Sc - слоисто-кучевые, Ns - слоисто-дождевые, Cu - кучевые, Cb - кучево-дождевые. Подробнее классификацию облаков см. в Атласе облаков (PDF).
T - Температура воздуха - температура, измеренная на высоте 2 м над землей.
Td - Температура точки росы - температура, при понижении до которой содержащийся в воздухе водяной пар достигнет насыщения.
f - Относительная влажность воздуха - влажноcть воздуха, измеренная на высоте 2 м над землей.
Te - Эффективная температура - температура, которую ощущает одетый по сезону человек в тени. Характеристика душности погоды. При расчете учитывается влияние влажности воздуха и скорости ветра на теплоощущения человека.
Tes - Эффективная температура на солнце - температура, которую ощущает человек, с поправкой на солнечный нагрев. Характеристика знойности погоды. Зависит от высоты солнца над горизонтом, облачности и скорости ветра. Ночью, в пасмурную погоду, а также при ветре 12 м/с и более поправка равна нулю.
P - Атмосферное давление - приведенное к уровню моря атмосферное давление.
Po - Атмосферное давление - измеренное на уровне метеостанции атмосферное давление.
Tmin - Минимальная температура - минимум температуры воздуха на высоте 2 м над землей.
Tmax - Максимальная температура - максимум температуры воздуха на высоте 2 м над землей.
R - Количество осадков - Количество выпавших осадков за период времени, мм. При наведении курсора мыши на число - период времени, за который выпало указанное количество осадков.
R24 - Количество осадков - Количество выпавших осадков за 24 часа, мм.
S - Снежный покров - Высота снежного покрова, см. При наведении курсора мыши на число - состояние снежного покрова и степень покрытия местности в баллах.